When you browse on this site, cookies collect data to enhance your experience and personalize the content and advertising you see.
Visit our Privacy Policy to learn more. By continuing to use the site, you agree to this use of cookies and data.
  • In Romania
  • List of Countries
  • For 7 days
  • Water Temperature
  • Satellite Maps
  • Weather Map
  • Weather Widgets
  • user-avatar
    Login

    Hourly Weather Konoplische

    Today, 20 March, Wednesday

    Time Temperature Precipitation Wind Pressure Humidity
    00:00 0°C° 0 mm 3 mps 749 mmHg 91%
    01:00 -1°C° 0 mm 3 mps 749 mmHg 91%
    02:00 -1°C° 0 mm 3 mps 749 mmHg 92%
    03:00 -1°C° 0 mm 3 mps 749 mmHg 92%
    04:00 -2°C° 0 mm 3 mps 749 mmHg 93%
    05:00 -2°C° 0 mm 3 mps 749 mmHg 93%
    06:00 -1°C° 0 mm 3 mps 750 mmHg 90%
    07:00 -1°C° 0 mm 3 mps 750 mmHg 88%
    08:00 -1°C° 0 mm 4 mps 750 mmHg 85%
    09:00 0°C° 0 mm 4 mps 751 mmHg 82%
    10:00 0°C° 0 mm 4 mps 751 mmHg 78%
    11:00 +1°C° 0 mm 4 mps 751 mmHg 74%
    12:00 +1°C° 0.1 mm 4 mps 751 mmHg 73%
    13:00 +3°C° 0.1 mm 4 mps 751 mmHg 73%
    14:00 +3°C° 0.1 mm 4 mps 751 mmHg 72%
    15:00 +1°C° 0.1 mm 4 mps 751 mmHg 75%
    16:00 +2°C° 0.1 mm 3 mps 751 mmHg 78%
    17:00 +1°C° 0.1 mm 3 mps 751 mmHg 81%
    18:00 0°C° 0 mm 3 mps 751 mmHg 83%
    19:00 0°C° 0 mm 3 mps 752 mmHg 85%
    20:00 -1°C° 0 mm 3 mps 752 mmHg 87%
    21:00 -1°C° 0 mm 3 mps 751 mmHg 87%
    22:00 -1°C° 0 mm 3 mps 751 mmHg 86%
    23:00 -1°C° 0 mm 3 mps 751 mmHg 86%

    Tomorrow, 21 March, Thursday

    Time Temperature Precipitation Wind Pressure Humidity
    00:00 -1°C° 0 mm 3 mps 750 mmHg 86%
    01:00 -2°C° 0 mm 3 mps 750 mmHg 85%
    02:00 -2°C° 0 mm 3 mps 749 mmHg 85%
    03:00 -1°C° 0.2 mm 3 mps 748 mmHg 87%
    04:00 -1°C° 0.2 mm 3 mps 748 mmHg 89%
    05:00 -1°C° 0.2 mm 3 mps 747 mmHg 91%
    06:00 -1°C° 0.3 mm 3 mps 747 mmHg 90%
    07:00 0°C° 0.3 mm 3 mps 747 mmHg 89%
    08:00 0°C° 0.3 mm 3 mps 747 mmHg 88%
    09:00 +1°C° 0.1 mm 3 mps 747 mmHg 85%
    10:00 +1°C° 0.1 mm 4 mps 747 mmHg 82%
    11:00 +1°C° 0.1 mm 4 mps 748 mmHg 79%
    12:00 +1°C° 0.1 mm 5 mps 748 mmHg 77%
    13:00 +1°C° 0.1 mm 5 mps 748 mmHg 75%
    14:00 +1°C° 0.1 mm 5 mps 748 mmHg 74%
    15:00 +1°C° 0 mm 4 mps 749 mmHg 76%
    16:00 +1°C° 0 mm 4 mps 749 mmHg 78%
    17:00 +1°C° 0 mm 3 mps 749 mmHg 81%
    18:00 +1°C° 0 mm 3 mps 749 mmHg 84%
    19:00 +1°C° 0 mm 2 mps 749 mmHg 88%
    20:00 +1°C° 0 mm 2 mps 750 mmHg 91%
    21:00 -1°C° 0 mm 2 mps 750 mmHg 92%
    22:00 -1°C° 0 mm 2 mps 749 mmHg 93%
    23:00 -2°C° 0 mm 2 mps 749 mmHg 94%

    Day after tomorrow, 22 March, Friday

    Time Temperature Precipitation Wind Pressure Humidity
    00:00 -2°C° 0 mm 2 mps 749 mmHg 94%
    01:00 -2°C° 0 mm 2 mps 749 mmHg 93%
    02:00 -2°C° 0 mm 2 mps 748 mmHg 93%
    03:00 -2°C° 0.1 mm 2 mps 748 mmHg 92%
    04:00 -1°C° 0.1 mm 2 mps 747 mmHg 90%
    05:00 +1°C° 0.1 mm 2 mps 747 mmHg 89%
    06:00 +1°C° 0.6 mm 2 mps 747 mmHg 90%
    07:00 +1°C° 0.6 mm 3 mps 746 mmHg 91%
    08:00 +1°C° 0.6 mm 3 mps 746 mmHg 91%
    09:00 +2°C° 0.3 mm 3 mps 746 mmHg 89%
    10:00 +3°C° 0.3 mm 3 mps 746 mmHg 87%
    11:00 +5°C° 0.3 mm 4 mps 745 mmHg 85%
    12:00 +5°C° 0 mm 4 mps 745 mmHg 82%
    13:00 +5°C° 0 mm 5 mps 745 mmHg 79%
    14:00 +6°C° 0 mm 5 mps 746 mmHg 75%
    15:00 +5°C° 0 mm 5 mps 746 mmHg 74%
    16:00 +4°C° 0 mm 4 mps 746 mmHg 74%
    17:00 +3°C° 0 mm 4 mps 746 mmHg 73%
    18:00 +1°C° 0 mm 4 mps 746 mmHg 74%
    19:00 0°C° 0 mm 4 mps 747 mmHg 76%
    20:00 -1°C° 0 mm 4 mps 747 mmHg 78%
    21:00 -2°C° 0 mm 4 mps 748 mmHg 79%
    22:00 -2°C° 0 mm 3 mps 748 mmHg 80%
    23:00 -2°C° 0 mm 3 mps 748 mmHg 81%

    23 March, Saturday

    Time Temperature Precipitation Wind Pressure Humidity
    00:00 -4°C° 0 mm 3 mps 748 mmHg 83%
    01:00 -4°C° 0 mm 3 mps 749 mmHg 85%
    02:00 -3°C° 0 mm 2 mps 749 mmHg 87%
    03:00 -4°C° 0 mm 2 mps 749 mmHg 88%
    04:00 -4°C° 0 mm 2 mps 749 mmHg 89%
    05:00 -4°C° 0 mm 2 mps 749 mmHg 91%
    06:00 -1°C° 0 mm 1 mps 749 mmHg 86%
    07:00 0°C° 0 mm 1 mps 749 mmHg 81%
    08:00 +1°C° 0 mm 1 mps 749 mmHg 76%
    09:00 +1°C° 0 mm 2 mps 748 mmHg 70%
    10:00 +3°C° 0 mm 2 mps 747 mmHg 63%
    11:00 +4°C° 0 mm 2 mps 747 mmHg 57%
    12:00 +3°C° 0 mm 3 mps 746 mmHg 60%
    13:00 +4°C° 0 mm 3 mps 745 mmHg 64%
    14:00 +4°C° 0 mm 4 mps 744 mmHg 67%
    15:00 +4°C° 0 mm 4 mps 743 mmHg 75%
    16:00 +4°C° 0 mm 4 mps 742 mmHg 83%
    17:00 +4°C° 0 mm 4 mps 741 mmHg 91%
    18:00 +3°C° 0.1 mm 5 mps 741 mmHg 90%
    19:00 +5°C° 0.1 mm 5 mps 740 mmHg 90%
    20:00 +5°C° 0.1 mm 5 mps 739 mmHg 90%
    21:00 +3°C° 0.1 mm 5 mps 740 mmHg 88%
    22:00 +2°C° 0.1 mm 5 mps 740 mmHg 86%
    23:00 +1°C° 0.1 mm 5 mps 740 mmHg 84%

    24 March, Sunday

    Time Temperature Precipitation Wind Pressure Humidity
    00:00 0°C° 0 mm 4 mps 740 mmHg 79%
    01:00 -1°C° 0 mm 4 mps 740 mmHg 74%
    02:00 -2°C° 0 mm 4 mps 741 mmHg 69%
    03:00 -2°C° 0 mm 4 mps 740 mmHg 69%
    04:00 -2°C° 0 mm 5 mps 740 mmHg 70%
    05:00 -2°C° 0 mm 5 mps 740 mmHg 70%
    06:00 -3°C° 0 mm 6 mps 739 mmHg 66%
    07:00 -2°C° 0 mm 7 mps 739 mmHg 61%
    08:00 -1°C° 0 mm 8 mps 739 mmHg 57%
    09:00 -1°C° 0 mm 8 mps 738 mmHg 57%
    10:00 -1°C° 0 mm 9 mps 738 mmHg 56%
    11:00 -1°C° 0 mm 9 mps 738 mmHg 55%
    12:00 0°C° 0 mm 9 mps 738 mmHg 56%
    13:00 0°C° 0 mm 9 mps 738 mmHg 57%
    14:00 0°C° 0 mm 9 mps 738 mmHg 58%
    15:00 0°C° 0.1 mm 8 mps 738 mmHg 58%
    16:00 -1°C° 0.1 mm 7 mps 738 mmHg 58%
    17:00 -1°C° 0.1 mm 7 mps 739 mmHg 57%
    18:00 -2°C° 0 mm 6 mps 739 mmHg 60%
    19:00 -3°C° 0 mm 6 mps 739 mmHg 62%
    20:00 -4°C° 0 mm 5 mps 739 mmHg 65%
    21:00 -5°C° 0 mm 5 mps 739 mmHg 65%
    22:00 -5°C° 0 mm 5 mps 739 mmHg 66%
    23:00 -5°C° 0 mm 5 mps 739 mmHg 66%

    25 March, Monday

    Time Temperature Precipitation Wind Pressure Humidity
    00:00 -5°C° 0 mm 4 mps 739 mmHg 67%
    01:00 -5°C° 0 mm 4 mps 739 mmHg 68%
    02:00 -5°C° 0 mm 4 mps 739 mmHg 69%
    03:00 -5°C° 0 mm 3 mps 739 mmHg 69%
    04:00 -5°C° 0 mm 3 mps 739 mmHg 70%
    05:00 -5°C° 0 mm 3 mps 739 mmHg 70%
    06:00 -4°C° 0 mm 3 mps 738 mmHg 67%
    07:00 -4°C° 0 mm 3 mps 738 mmHg 64%
    08:00 -2°C° 0 mm 3 mps 738 mmHg 61%
    09:00 0°C° 0 mm 3 mps 737 mmHg 58%
    10:00 +1°C° 0 mm 3 mps 737 mmHg 55%
    11:00 +1°C° 0 mm 4 mps 736 mmHg 51%
    12:00 +3°C° 0.1 mm 4 mps 736 mmHg 51%
    13:00 +3°C° 0.1 mm 4 mps 735 mmHg 51%
    14:00 +3°C° 0.1 mm 4 mps 734 mmHg 50%
    15:00 +3°C° 0.1 mm 3 mps 734 mmHg 55%
    16:00 +2°C° 0.1 mm 3 mps 734 mmHg 60%
    17:00 +2°C° 0.1 mm 2 mps 733 mmHg 65%
    18:00 +2°C° 0 mm 2 mps 733 mmHg 70%
    19:00 +1°C° 0 mm 2 mps 732 mmHg 75%
    20:00 -1°C° 0 mm 2 mps 732 mmHg 80%
    21:00 -1°C° 0.1 mm 3 mps 731 mmHg 81%
    22:00 -1°C° 0.1 mm 3 mps 731 mmHg 83%
    23:00 0°C° 0.1 mm 3 mps 730 mmHg 85%
    Show more